Williamtown, Australia

7:39 AM AEDT on March 27, 2017 (GMT +1100)
Williamtown Military

Weather History for YWLM - March, 2013

Change the Weather History Date:

Wednesday, March 6, 2013

  Actual Average Record
Temperature  
Mean Temperature 74 °F -  
Max Temperature 81 °F - - ()
Min Temperature 67 °F - - ()
Cooling Degree Days 9    
Growing Degree Days 24 (Base 50)    
Moisture  
Dew Point 62 °F    
Average Humidity 69    
Maximum Humidity 88    
Minimum Humidity 35    
Precipitation  
Precipitation 0.00 in - - ()
Sea Level Pressure  
Sea Level Pressure 30.09 in    
Wind  
Wind Speed 7 mph ()    
Max Wind Speed 18 mph    
Max Gust Speed -    
Visibility 6.9 miles    
Events Rain    
T = Trace of Precipitation, MM = Missing Value Source: Averaged Metar Reports

Daily Weather History Graph

Daily Weather History Graph

Search for Another Location

Airport or City:

Trip Planner

Search our weather history database for the weather conditions in past years. The results will help you decide how hot, cold, wet, or windy it might be!

Date:

Astronomy

Mar. 06, 2013 Rise Set
Actual Time 6:45 AM AEDT 7:22 PM AEDT
Civil Twilight 6:20 AM AEDT 7:47 PM AEDT
Nautical Twilight 5:51 AM AEDT 8:16 PM AEDT
Astronomical Twilight 5:21 AM AEDT 8:46 PM AEDT
Moon 12:37 AM AEDT (3/6) 2:58 PM AEDT (3/6)
Length of Visible Light 13h 26m
Length of Day
12h 37m
Last Quarter, 37% of the Moon is Illuminated
Mar 6
Last Quarter
Mar 12
New
Mar 20
First Quarter
Mar 27
Full
Apr 3
Last Quarter

Hourly Weather History & Observations

Time (AEDT) Temp. Heat Index Dew Point Humidity Pressure Visibility Wind Dir Wind Speed Gust Speed Precip Events Conditions
12:00 AM 71 °F - 64 °F 71% 30.14 in - East 6.9 mph - -   Overcast
12:00 AM 71.6 °F - 64.4 °F 78% 30.12 in 6.2 mi East 6.9 mph - N/A   Overcast
1:00 AM 71.6 °F - 64.4 °F 78% 30.12 in 6.2 mi East 6.9 mph - N/A   Overcast
1:30 AM 69.8 °F - 64.4 °F 83% 30.09 in 6.2 mi East 4.6 mph - N/A   Overcast
2:00 AM 70 °F - 65 °F 78% 30.11 in - ENE 5.8 mph - -  
2:00 AM 69.8 °F - 64.4 °F 83% 30.09 in 6.2 mi ENE 5.8 mph - N/A   Overcast
2:30 AM 69.8 °F - 66.2 °F 88% 30.09 in 6.2 mi North 5.8 mph - N/A   Drizzle
3:00 AM 70 °F - 64 °F 75% 30.11 in - NE 6.9 mph - -   Overcast
3:00 AM 69.8 °F - 64.4 °F 83% 30.09 in 6.2 mi NE 6.9 mph - N/A   Overcast
3:30 AM 69.8 °F - 62.6 °F 78% 30.09 in 6.2 mi NE 5.8 mph - N/A   Overcast
4:00 AM 69.8 °F - 64.4 °F 83% 30.09 in 6.2 mi ENE 1.2 mph - N/A   Overcast
4:30 AM 68.0 °F - 64.4 °F 88% 30.09 in 6.2 mi East 1.2 mph - N/A   Mostly Cloudy
5:00 AM 68 °F - 65 °F 87% 30.10 in - Calm Calm - -  
5:00 AM 68.0 °F - 64.4 °F 88% 30.09 in 6.2 mi Calm Calm - N/A   Overcast
6:00 AM 67 °F - 64 °F 88% 30.12 in 31 mi ENE 10.4 mph - - Rain Light Rain Showers
6:00 AM 68.0 °F - 64.4 °F 88% 30.09 in 3.1 mi ENE 10.4 mph - N/A Rain Light Rain Showers
6:11 AM 68.0 °F - 64.4 °F 88% 30.09 in 5.0 mi East 8.1 mph - N/A Rain Light Rain Showers
6:16 AM 68.0 °F - 64.4 °F 88% 30.09 in 6.2 mi ESE 5.8 mph - N/A Rain Light Rain Showers
6:30 AM 68.0 °F - 64.4 °F 88% 30.09 in 6.2 mi East 3.5 mph - N/A   Mostly Cloudy
7:00 AM 68.0 °F - 64.4 °F 88% 30.09 in - Calm Calm - N/A   Clear
7:30 AM 68.0 °F - 64.4 °F 88% 30.12 in - East 5.8 mph - N/A   Clear
8:00 AM 70 °F - 65 °F 81% 30.13 in - Calm Calm - -  
8:00 AM 69.8 °F - 66.2 °F 88% 30.12 in - Calm Calm - N/A   Clear
8:30 AM 71.6 °F - 66.2 °F 83% 30.12 in - ENE 1.2 mph - N/A   Clear
9:00 AM 72 °F - 65 °F 72% 30.14 in 19 mi NE 1.2 mph - -   Partly Cloudy
9:00 AM 71.6 °F - 64.4 °F 78% 30.12 in 6.2 mi NE 1.2 mph - N/A   Mostly Cloudy
9:30 AM 73.4 °F - 64.4 °F 73% 30.12 in 6.2 mi ENE 5.8 mph - N/A   Mostly Cloudy
10:00 AM 75.2 °F - 64.4 °F 69% 30.12 in 6.2 mi NE 5.8 mph - N/A   Scattered Clouds
10:30 AM 77.0 °F - 60.8 °F 57% 30.12 in 6.2 mi NE 10.4 mph - N/A   Partly Cloudy
11:00 AM 78 °F - 60 °F 43% 30.14 in - NE 12.7 mph - -  
11:00 AM 77.0 °F - 59.0 °F 54% 30.12 in 6.2 mi NE 12.7 mph - N/A   Partly Cloudy
11:30 AM 78.8 °F - 60.8 °F 54% 30.12 in 6.2 mi ENE 10.4 mph - N/A   Scattered Clouds
12:00 PM 78 °F - 61 °F 45% 30.13 in 19 mi ENE 11.5 mph - -   Partly Cloudy
12:00 PM 77.0 °F - 60.8 °F 57% 30.12 in 6.2 mi ENE 11.5 mph - N/A   Mostly Cloudy
12:30 PM 78.8 °F - 59.0 °F 51% 30.09 in 6.2 mi NNE 10.4 mph - N/A   Mostly Cloudy
1:00 PM 78.8 °F - 60.8 °F 54% 30.09 in 6.2 mi ENE 9.2 mph - N/A   Scattered Clouds
1:30 PM 80.6 °F 81.5 °F 60.8 °F 51% 30.06 in 6.2 mi ENE 10.4 mph - N/A   Partly Cloudy
2:00 PM 81 °F - 59 °F 37% 30.08 in - NE 9.2 mph - -  
2:00 PM 80.6 °F 81.1 °F 59.0 °F 48% 30.06 in 6.2 mi NE 9.2 mph - N/A   Partly Cloudy
2:30 PM 80.6 °F 80.8 °F 57.2 °F 45% 30.06 in 6.2 mi East 13.8 mph - N/A   Partly Cloudy
3:00 PM 81 °F - 58 °F 35% 30.06 in 19 mi NE 12.7 mph - -   Partly Cloudy
3:00 PM 80.6 °F 81.1 °F 59.0 °F 48% 30.06 in 6.2 mi NE 12.7 mph - N/A   Partly Cloudy
3:30 PM 78.8 °F - 55.4 °F 44% 30.04 in 6.2 mi ENE 13.8 mph - N/A   Partly Cloudy
4:00 PM 80.6 °F 80.8 °F 57.2 °F 45% 30.04 in 6.2 mi ENE 15.0 mph - N/A   Partly Cloudy
4:30 PM 78.8 °F - 59.0 °F 51% 30.04 in 6.2 mi ENE 16.1 mph - N/A   Partly Cloudy
5:00 PM 78 °F - 61 °F 45% 30.05 in - ENE 17.3 mph - -  
5:00 PM 77.0 °F - 60.8 °F 57% 30.04 in 6.2 mi ENE 17.3 mph - N/A   Unknown
5:30 PM 77.0 °F - 59.0 °F 54% 30.04 in 6.2 mi ENE 16.1 mph - N/A   Unknown
6:00 PM 76 °F - 60 °F 47% 30.06 in - East 18.4 mph - -  
6:00 PM 77.0 °F - 59.0 °F 54% 30.04 in 6.2 mi East 18.4 mph - N/A   Unknown
6:30 PM 75.2 °F - 59.0 °F 57% 30.06 in 6.2 mi ENE 13.8 mph - N/A   Unknown
7:00 PM 75.2 °F - 59.0 °F 57% 30.06 in 6.2 mi ENE 11.5 mph - N/A   Unknown
7:30 PM 73.4 °F - 62.6 °F 69% 30.06 in 6.2 mi ENE 12.7 mph - N/A   Unknown
8:00 PM 72 °F - 64 °F 68% 30.09 in - ENE 11.5 mph - -  
8:00 PM 71.6 °F - 64.4 °F 78% 30.06 in 6.2 mi ENE 11.5 mph - N/A   Unknown
8:30 PM 71.6 °F - 64.4 °F 78% 30.09 in 6.2 mi ENE 9.2 mph - N/A   Unknown
9:00 PM 71 °F - 63 °F 70% 30.11 in - ENE 9.2 mph - -  
9:00 PM 71.6 °F - 62.6 °F 73% 30.09 in 6.2 mi ENE 9.2 mph - N/A   Unknown
9:30 PM 69.8 °F - 62.6 °F 78% 30.09 in 6.2 mi ENE 6.9 mph - N/A   Unknown
10:00 PM 69.8 °F - 62.6 °F 78% 30.09 in 6.2 mi ENE 6.9 mph - N/A   Unknown
10:30 PM 69.8 °F - 62.6 °F 78% 30.09 in 6.2 mi ENE 6.9 mph - N/A   Unknown
11:00 PM 69 °F - 63 °F 76% 30.11 in - ENE 8.1 mph - -  
11:00 PM 69.8 °F - 62.6 °F 78% 30.09 in 6.2 mi ENE 8.1 mph - N/A   Unknown
11:30 PM 68.0 °F - 62.6 °F 83% 30.09 in 6.2 mi NE 5.8 mph - N/A   Unknown